Location: Bremen
(53.0830°N, 8.8000°E)
Time: 05:14:43
(UTC+02:00)

X-37B - Pass Details

Date: 09 August 2021
Orbit: 381 x 393 km, 45.0° (Epoch: 29 August)

Event Time Altitude Azimuth Distance (km) Brightness Sun altitude
Exits shadow 04:13:58 19° 184° (S) 987 2.2 -12.6°
Maximum altitude 04:14:10 19° 179° (S) 983 2.2 -12.6°
Drops below altitude 10° 04:16:29 10° 131° (SE) 1,397 3.4 -12.4°
Sets 04:18:55 0° 113° (ESE) 2,250 4.7 -12.2°
